Other Surface Observations
Issued by NWS

Home | Current Version | Previous Version | Text Only | Print | Product List | Glossary On
Versions: 1 2 3 4 5 6 7 8 9 10 11 12 13 14 15 16 17 18 19 20 21 22 23 24 25 26 27 28 29 30 31 32 33 34 35 36 37 38 39 40 41 42 43 44 45 46 47 48 49 50
000
SXUS52 KTAE 240905
OSOTAE
OSOTAE
North Florida/South Alabama/Southwest Georgia Weather Roundup
National Weather Service Tallahassee Florida
400 AM EST FRI FEB 24 2017

Note: "fair" indicates few or no clouds below 12,000 feet with no
significant weather and/or obstructions to visibility.

!FLZ017-115-028-034-025-241000
...North Florida...

CITY           SKY/WX    TMP DP  RH WIND       PRES   REMARKS
TALLAHASSEE    CLEAR     56  54  93 CALM      29.83F
APALACHICOLA   CLEAR     56  56 100 CALM      29.82S
PERRY          CLEAR     61  58  91 N3        29.83S
CROSS CITY     CLEAR     57  57 100 N5        29.81S
JACKSONVILLE   PTCLDY    61  61 100 N5        29.80S
$$

!FLZ112-006-005-002-011-241000
...Florida Panhandle...

CITY           SKY/WX    TMP DP  RH WIND       PRES   REMARKS
MARIANNA       PTCLDY    57  56  96 CALM      29.83S
BONIFAY        NOT AVBL
PANAMA CITY NW FAIR      56  55  97 CALM      29.81F
TYNDALL AFB    CLEAR     59  57  95 CALM      29.82F
TYND DRONE APT FAIR      59  59 100 CALM      29.82F
DE FUNIAK SPR  FAIR      60  58  94 SE3       29.83S
EGLIN AFB      PTCLDY    57  57  99 CALM      29.82R FOG
DESTIN         CLEAR     64  64 100 CALM      29.81S
HURLBURT       FOG       58  57  96 CALM      29.80S VSB 1/4
CRESTVIEW      FOG       55  54  96 CALM      29.83S VSB 1/4
PENSACOLA      FOG       59  58  96 CALM      29.79F VSB 1/4
$$

!ALZ063-066-241000
...South Alabama...

CITY           SKY/WX    TMP DP  RH WIND       PRES   REMARKS
DOTHAN         CLEAR     60  58  92 E5        29.87S
OZARK CAIRNS   CLEAR     58  56  93 E3        29.82F
FT RUCKER HELI CLEAR     56  55  95 CALM      29.82S
RUCKER HELI 3  FAIR      58  56  93 CALM      29.82S
RUCKER HELI 2  FAIR      59  57  91 E3        29.82F
FLORALA APT    PTCLDY    57  55  93 CALM      29.84R
ANDALUSIA      CLEAR     57  53  86 CALM      29.82R
TROY           PTCLDY    59  56  89 CALM      29.84R
EUFALA         FAIR      56  54  93 CALM      29.82F
MOBILE         FOG       61  60  97 CALM      29.81S VSB 1/4
$$

!GAZ120>161-241000
...Southwest and South Central Georgia...

CITY           SKY/WX    TMP DP  RH WIND       PRES   REMARKS
THOMASVILLE    FAIR      59  59 100 CALM      29.85F
BAINBRIDGE     PTCLDY    59  57  94 CALM      29.84F
MOODY AFB      CLEAR     57  56  96 N6        29.83S
VALDOSTA       CLEAR     55  55 100 N3        29.84S
MOULTRIE       CLEAR     59  59 100 CALM      29.85S
BLAKELY        CLEAR     55  54  94 CALM      29.85S
ALBANY         CLEAR     56  55  97 CALM      29.86F
TIFTON         FAIR      56  56 100 CALM      29.85S
FITZGERALD     FOG       56  56 100 CALM      29.87F VSB 1/2
CORDELE        FAIR      57  56  97 CALM      29.87S
AMERICUS       FAIR      52  52 100 CALM      29.88S
HOMERVILLE     FAIR      57  57 100 CALM      29.84S
$$

!GMZ750-755-770-775-241000
...Coastal and Buoy Obs...

STATION/POSITION TIME  TEMP    WIND        PRES    VSBY  WAVE
                       AIR SEA DIR/SP/G                  HT/PER
                 (UTC) (F)     (DEG/KT/KT) (MB)    (MI)  (FT/S)
KEATON BEACH     0900   60      20/  5/  7 1009.4S
CEDAR KEY        0800   64      20/  7/  9 1009.1F
C TOWER          0900   67      70/ 10/ 11 1010.4S
APALACHICOLA BUO 0850   70 69   50/ 12/ 14 1009.1S         2/ 7
PANAMA CITY BUOY 0750   70 71              1010.0          1/ 7
MOBILE BUOY      NOT AVBL
ORANGE BCH AL BU 0750   67 68  190/  4/  4 1009.3          1/ 5
$$




USA.gov is the U.S. government's official web portal to all federal, state and local government web resources and services.